Miscellaneous Local Product
Issued by NWS North Platte, NE

Home | Current Version | Previous Version | Graphics & Text | Print | Product List | Glossary On
Versions: 1 2 3 4 5 6 7 8 9 10 11 12 13 14 15 16 17 18 19 20 21 22 23 24 25 26 27 28 29 30 31 32 33 34 35 36 37 38 39 40 41 42 43 44 45 46 47 48 49 50
000
AXUS43 KLBF 191110
MISLBF


WESTERN AND NORTH CENTRAL NEBRASKA HOURLY WEATHER ROUNDUP
NATIONAL WEATHER SERVICE NORTH PLATTE NE
500 AM CST THU JAN 19 2017

NOTE: "FAIR" INDICATES FEW OR NO CLOUDS BELOW 12,000 FEET WITH NO
SIGNIFICANT WEATHER AND/OR OBSTRUCTIONS TO VISIBILITY.

NOTE: STATIONS NOT REPORTING VARIABLES SUCH AS SKY/WEATHER OR
PRESSURE ARE PROVIDED BY RAWS AND APRS NETWORKS AND ARE NOT UNDER
NATIONAL WEATHER SERVICE QUALITY CONTROL.

...OBSERVATIONS IN AND NEAR THE EASTERN PANHANDLE OF NEBRASKA...

CITY           SKY/WX    TMP DP  RH WIND       PRES   REMARKS
PINE RIDGE     CLOUDY    26  19  74 W5        29.57F WCI  20
CHADRON        CLOUDY    23  16  74 W7        29.59F WCI  15
ALLIANCE       CLOUDY    14  10  84 CALM      29.59F
SIDNEY         CLOUDY    25  18  74 W10       29.62F WCI  15
CRESCENT LAKE    N/A     22  20  90 S3          N/A
$$

...OBSERVATIONS IN NORTHERN NEBRASKA AND FAR SOUTHERN SOUTH DAKOTA...

CITY           SKY/WX    TMP DP  RH WIND       PRES   REMARKS
WINNER         FAIR      35  29  78 SW9       29.60S WCI  28
VALENTINE      CLOUDY    27  22  81 SW13      29.60F WCI  16
THEDFORD       CLOUDY    28  27  96 S6        29.63S FOG     WCI  21
AINSWORTH      CLEAR     31  31 100 S10       29.62F WCI  23
O`NEILL        CLOUDY    37  37  99 S12       29.67F FOG     WCI  29
ORD            FOG       36  35  96 S9        29.69F VSB 1/4 WCI  29
BROKEN BOW     FOG       37  37 100 S5        29.67F VSB 1/4 WCI  33
VALENTINE NWR    N/A     28  26  91 S6          N/A  WCI  22
BUTTE            N/A     34  32  94 SW6         N/A  WCI  29
HALSEY           N/A     33  33 100 S6          N/A  WCI  27
SARGENT          N/A     37  28  69 CALM        N/A
CHAMBERS         N/A     37  36  98 S3          N/A
EWING            N/A     36  35  95 S5          N/A  WCI  32
$$

...OBSERVATIONS IN SOUTHWEST NEBRASKA AND FAR NORTHEAST COLORADO...

CITY           SKY/WX    TMP DP  RH WIND       PRES   REMARKS
WRAY           FAIR      18  14  86 SW6       29.65F WCI   9
HOLYOKE        FAIR      25  19  80 NW7       29.63F WCI  17
IMPERIAL       CLEAR     26  22  84 W6        29.63F WCI  19
OGALLALA       CLOUDY    21  19  93 W5        29.64S WCI  15
NORTH PLATTE   FOG       33  32  96 W3        29.66F VSB 1/4
MCCOOK         FOG       34  34 100 SW5       29.68F VSB 1/4 WCI  30
LEXINGTON      CLOUDY    38  37  96 S5        29.68F FOG     WCI  35
STAPLETON        N/A     33  32  97 CALM        N/A
GOTHENBURG       N/A     37  37  99 S3          N/A
CALLAWAY         N/A     35  34  96 S10         N/A  WCI  27
$$

...OBSERVATIONS IN CENTRAL LINCOLN COUNTY AREA...

CITY           SKY/WX    TMP DP  RH WIND       PRES   REMARKS
N.P. AIRPORT   FOG       33  32  96 W3        29.66F VSB 1/4
N.P. DOWNTOWN    N/A     30  29  97 CALM        N/A
N.P. SOUTHEAST   N/A     30  29  95 CALM        N/A
N.P. HILLCREST   N/A     31  30  96 CALM        N/A
$$

...SOME OBSERVATIONS FROM AROUND THE REGION...

CITY           SKY/WX    TMP DP  RH WIND       PRES   REMARKS
LARAMIE        CLOUDY     5   2  87 CALM      29.72F
CHEYENNE       CLOUDY    38  14  37 NW15      29.62F WCI  29
DENVER         CLOUDY    30  14  51 S6        29.63F WCI  24
AKRON          CLOUDY    26  18  71 W9        29.62F WCI  17
SCOTTSBLUFF    CLOUDY    27  19  72 NW9       29.60F WCI  18
RAPID CITY     CLOUDY    25  18  74 CALM      29.53F
BISMARCK       CLOUDY    11   6  81 CALM      29.56S
PIERRE         CLOUDY    14  12  92 CALM      29.57F
SIOUX FALLS    CLEAR     36  34  92 S8        29.74R WCI  30
OMAHA          PTCLDY    33  29  85 E3        29.81F
GRAND ISLAND   FOG       37  37 100 S13       29.73F VSB 1/2 WCI  29
KANSAS CITY    DRZL/FOG  42  40  92 SE7       29.84F VSB 1
WICHITA        CLOUDY    44  44 100 S12       29.78F FOG
OKLAHOMA CITY  CLOUDY    47  46  97 S13       29.81F
DALLAS         FOG       48  48 100 SW7       29.87F VSB 1/8
AMARILLO       CLEAR     39  33  79 SW14      29.64F WCI  31
DODGE CITY     CLOUDY    44  42  93 S13       29.66F
HAYS           CLOUDY    44  42  93 S9        29.70F
GOODLAND       PTCLDY    24  23  96 CALM      29.63F
$$




USA.gov is the U.S. government's official web portal to all federal, state and local government web resources and services.